Location: Newark
(13.2833°S, 176.1833°W)
Time: 03:08:44
(UTC+00:00)

Hubble Space Telescope - Pass Details

Date: 24 November 2019
Orbit: 536 x 540 km, 28.5° (Epoch: 08 December)

Event Time Altitude Azimuth Distance (km) Brightness Sun altitude
Exits shadow 16:18:34 - 239° (WSW) 2,466 3.8 -11.8°
Reaches altitude 10° 16:21:37 10° 209° (SSW) 1,795 3.4 -11.1°
Maximum altitude 16:23:01 11° 189° (S) 1,703 3.5 -10.8°
Drops below altitude 10° 16:24:26 10° 169° (S) 1,795 3.9 -10.5°
Sets 16:28:13 0° 135° (SE) 2,687 5.8 -9.6°
